[[{"header":{"parameterUnit":"m.s-1","parameterCategory":1,"la1":30.2991,"la2":30.254,"lo1":-89.0895,"lo2":-89.0444,"dy":0.0017,"dx":0.0017,"nx":28,"ny":28,"refTime":"2025-09-10T21:00:00:Z","depth":0,"parameterNumber":2,"parameterNumberName":"U-component_of_WINDS"},"data":[0,0,0,0,0,0,0,0,0,0,0,0,0,0,0,0,0,0,0,0,0,0,0,0,0,0,0,0,0,0,0,0,0,0,0,0,0,0,0,0,0,0,0,0,0,0,0,0,0,0,0,0,0,0,0,0,0,0,-2.2072,-2.2073,0,-2.2138,-2.2139,-2.2139,-2.2033,-2.2029,-2.2026,-2.2022,-2.209,-2.2095,-2.21,0,0,0,0,0,0,0,0,0,0,0,0,0,-2.1856,-2.186,-2.2072,-2.2073,-2.2074,-2.2138,-2.2139,-2.214,-2.2034,-2.2029,-2.2025,-2.2021,-2.2089,-2.2095,-2.2101,0,0,0,0,0,0,0,0,0,0,0,0,0,-2.1939,-2.1862,-2.2072,-2.2029,-2.2026,-2.2138,-2.2139,-2.214,-2.2035,-2.2029,-2.2024,-2.2019,-2.2086,-2.2094,-2.2102,-2.2259,0,0,-2.2126,-2.2129,0,0,0,0,0,0,0,0,-2.1934,-2.1947,-2.2034,-2.2032,-2.2029,-2.2072,-2.2087,-2.218,-2.2036,-2.2031,-2.2022,-2.2016,-2.2089,-2.2096,-2.212,-2.2262,-2.2265,-2.2126,-2.2131,-2.2134,-2.2137,0,0,0,0,0,0,0,-2.1928,-2.1943,-2.2098,-2.2036,-2.2032,-2.2006,-2.2012,-2.2104,-2.209,-2.2031,-2.2024,-2.2033,-2.2086,-2.2113,-2.2121,-2.2266,-2.2126,-2.2133,-2.2138,-2.2141,-2.2542,-2.2548,0,0,0,0,0,0,-2.1928,-2.1939,-2.2096,-2.21,-2.1967,-2.2015,-2.2021,-2.2063,-2.2088,-2.2087,-2.2037,-2.2028,-2.2102,-2.2112,-2.2123,-2.231,-2.2134,-2.2142,-2.2146,-2.2536,-2.2544,-2.255,0,0,0,0,0,0,-2.1924,-2.1943,-2.2093,-2.2018,-2.2035,-2.2024,-2.2073,-2.2068,-2.2094,-2.2093,-2.209,-2.2068,-2.2098,-2.2112,-2.2226,-2.2311,-2.2145,-2.2152,-2.2529,-2.2539,-2.2547,-2.2686,0,0,0,0,0,0,-2.1918,-2.1942,-2.2002,-2.202,-2.2039,-2.2196,-2.2078,-2.2073,-2.2108,-2.2096,-2.2121,-2.212,-2.2095,-2.2215,-2.2234,-2.2319,-2.2158,-2.2522,-2.2533,-2.2544,-2.2674,-2.2699,-2.272,0,0,0,0,0,-2.191,-2.2038,-2.2005,-2.2025,-2.2114,-2.2201,-2.2212,-2.2181,-2.2115,-2.2176,-2.2175,-2.2119,-2.2298,-2.2228,-2.2248,-2.2337,-2.2516,-2.253,-2.2543,-2.2663,-2.2694,-2.2719,0,0,0,0,0,0,-2.2031,-2.204,-2.2003,-2.2141,-2.2171,-2.2183,-2.2258,-2.2214,-2.2264,-2.2251,-2.221,-2.2216,-2.234,-2.2349,-2.2271,-2.2491,-2.2396,-2.2414,-2.2481,-2.2509,-2.2532,-2.2528,-2.2165,0,0,0,0,0,-2.2073,-2.2143,-2.2147,-2.2268,-2.2285,-2.227,-2.2306,-2.228,-2.231,-2.2322,-2.2329,-2.2361,-2.2424,-2.2467,-2.2525,-2.2674,-2.2678,-2.2744,-2.2767,-2.2786,-2.2803,-2.2884,-2.2914,-2.2594,-2.2594,-2.2594,0,0,-2.2162,-2.2175,-2.2222,-2.2293,-2.2313,-2.2387,-2.2281,-2.2364,-2.2418,-2.2334,-2.2444,-2.245,-2.2482,-2.2615,-2.2674,-2.2627,-2.2892,-2.2803,-2.2818,-2.2825,-2.2901,-2.2931,-2.2958,-2.2603,-2.2602,-2.26,0,0,-2.2361,-2.2378,-2.2481,-2.2504,-2.2536,-2.2524,-2.2549,-2.2568,-2.257,-2.2678,-2.2617,-2.2681,-2.2791,-2.2817,-2.2844,-2.3054,-2.3005,-2.3074,-2.3195,-2.3274,-2.3299,-2.3321,-2.3398,-2.3426,-2.309,-2.309,-2.3091,0,-2.2468,-2.2577,-2.254,-2.2627,-2.2661,-2.2587,-2.2692,-2.2715,-2.2765,-2.279,-2.2736,-2.2873,-2.2889,-2.3028,-2.3079,-2.3103,-2.3131,-2.3072,-2.3298,-2.332,-2.334,-2.3413,-2.3442,-2.3099,-2.3098,-2.3097,-2.3096,0,-2.2707,-2.2783,-2.2863,-2.2913,-2.2955,-2.305,-2.3028,-2.3075,-2.3044,-2.3039,-2.3151,-2.3168,-2.3229,-2.3259,-2.323,-2.3394,-2.3364,-2.3305,-2.3209,-2.338,-2.3448,-2.3475,-2.3111,-2.3108,-2.3105,-2.3103,0,0,-2.2986,-2.3014,-2.3044,-2.3066,-2.3096,-2.3155,-2.3247,-2.3306,-2.3348,-2.3384,-2.3462,-2.3556,-2.3502,-2.3533,-2.3506,-2.3575,-2.3742,-2.3508,-2.3508,-2.3553,-2.3926,-2.3972,-2.4005,-2.3709,-2.3714,-2.3718,-2.3924,0,-2.3186,-2.3346,-2.3315,-2.3471,-2.3542,-2.3473,-2.3554,-2.3581,-2.3578,-2.3638,-2.3634,-2.3703,-2.3625,-2.3644,-2.3709,-2.3708,-2.3817,-2.3693,-2.3782,-2.3786,-2.3779,-2.404,-2.4089,-2.4282,-2.395,-2.3954,-2.3958,0,-2.3441,-2.3488,-2.3652,-2.3671,-2.3699,-2.3773,-2.3825,-2.3882,-2.3912,-2.3905,-2.394,-2.39,-2.3992,-2.3894,-2.4021,-2.3937,-2.3972,-2.3977,-2.3984,-2.3993,-2.3884,-2.4058,-2.4343,-2.4373,-2.3999,-2.3995,-2.3992,0,-2.3631,-2.3734,-2.3846,-2.3867,-2.3891,-2.3945,-2.3957,-2.3981,-2.4019,-2.4065,-2.4089,-2.4145,-2.4176,-2.422,-2.4196,-2.4127,-2.4329,-2.4228,-2.4327,-2.4328,-2.4374,-2.4372,-2.4671,-2.4393,-2.4392,-2.4392,-2.4391,0,-2.386,-2.3963,-2.3932,-2.4001,-2.4114,-2.4077,-2.4191,-2.4195,-2.4218,-2.4286,-2.4229,-2.4295,-2.4258,-2.4322,-2.4303,-2.4413,-2.4426,-2.4424,-2.4419,-2.4431,-2.4432,-2.4454,-2.4441,-2.4399,-2.4398,-2.4396,-2.4395,0,-2.4092,-2.4075,-2.4192,-2.4206,-2.4212,-2.4295,-2.4307,-2.4371,-2.4363,-2.4451,-2.447,-2.4458,-2.453,-2.451,-2.4587,-2.4574,-2.4713,-2.4689,-2.4704,-2.4699,-2.48,-2.4791,-2.5126,-2.5169,-2.4861,-2.4864,-2.4866,0,-2.424,-2.4318,-2.434,-2.4382,-2.4399,-2.4468,-2.4506,-2.4473,-2.4515,-2.4555,-2.4615,-2.4681,-2.4733,-2.485,-2.4849,-2.4908,-2.4886,-2.4999,-2.4895,-2.4905,-2.4891,-2.4887,-2.4896,-2.5021,-2.5024,-2.5027,-2.5029,0,-2.4505,-2.4493,-2.4551,-2.4607,-2.4654,-2.4696,-2.4732,-2.477,-2.4739,-2.479,-2.4862,-2.4902,-2.4981,-2.5048,-2.5102,-2.5115,-2.5069,-2.5062,-2.5088,-2.5103,-2.5109,-2.511,-2.4763,-2.5055,-2.5053,-2.5051,-2.5049,-2.5048,-2.4702,-2.4768,-2.4795,-2.4861,-2.4885,-2.4921,-2.4982,-2.4982,-2.5042,-2.5104,-2.508,-2.5164,-2.5191,-2.5259,-2.5279,-2.5344,-2.5301,-2.5339,-2.5349,-2.5359,-2.5373,-2.5097,-2.5353,-2.5352,-2.5352,-2.5351,-2.5351,0,-2.4966,-2.4979,-2.5041,-2.5094,-2.5147,-2.5096,-2.5134,-2.5182,-2.5256,-2.5286,-2.5338,-2.5422,-2.5486,-2.549,-2.5551,-2.5602,-2.5583,-2.562,-2.5617,-2.5621,-2.5407,-2.5379,-2.5635,-2.5635,-2.5635,-2.5635,-2.5635,-2.5635,-2.511,-2.522,-2.5211,-2.5333,-2.5346,-2.5427,-2.5454,-2.5487,-2.551,-2.5606,-2.566,-2.5661,-2.5681,-2.5743,-2.58,-2.5799,-2.5826,-2.5872,-2.5863,-2.5664,-2.5636,-2.5609,-2.5583,-2.5877,-2.5877,-2.6072,-2.6074,-2.6075]},{"header":{"parameterUnit":"m.s-1","parameterCategory":1,"la1":30.2991,"la2":30.254,"lo1":-89.0895,"lo2":-89.0444,"dy":0.0017,"dx":0.0017,"nx":28,"ny":28,"refTime":"2025-09-10T21:00:00:Z","depth":0,"parameterNumber":3,"parameterNumberName":"V-component_of_WINDS"},"data":[0,0,0,0,0,0,0,0,0,0,0,0,0,0,0,0,0,0,0,0,0,0,0,0,0,0,0,0,0,0,0,0,0,0,0,0,0,0,0,0,0,0,0,0,0,0,0,0,0,0,0,0,0,0,0,0,0,0,-2.286,-2.2861,0,-2.2941,-2.2942,-2.2943,-2.2956,-2.2955,-2.2954,-2.2954,-2.3033,-2.3036,-2.3038,0,0,0,0,0,0,0,0,0,0,0,0,0,-2.2715,-2.2717,-2.286,-2.2861,-2.2862,-2.2941,-2.2942,-2.2943,-2.2956,-2.2955,-2.2954,-2.2953,-2.3032,-2.3035,-2.3039,0,0,0,0,0,0,0,0,0,0,0,0,0,-2.2785,-2.2718,-2.286,-2.2878,-2.2881,-2.294,-2.2942,-2.2943,-2.2956,-2.2955,-2.2954,-2.2953,-2.3031,-2.3035,-2.3039,-2.3085,0,0,-2.3052,-2.3053,0,0,0,0,0,0,0,0,-2.2781,-2.279,-2.2875,-2.2877,-2.288,-2.2937,-2.2919,-2.2991,-2.2956,-2.2927,-2.2954,-2.2952,-2.3002,-2.3008,-2.3025,-2.3089,-2.3092,-2.3052,-2.3054,-2.3056,-2.3057,0,0,0,0,0,0,0,-2.2776,-2.2787,-2.2892,-2.2876,-2.2879,-2.2881,-2.289,-2.2933,-2.2969,-2.293,-2.2931,-2.294,-2.3003,-2.3021,-2.3027,-2.3093,-2.3052,-2.3056,-2.3058,-2.306,-2.3198,-2.3199,0,0,0,0,0,0,-2.2768,-2.2783,-2.289,-2.2895,-2.2827,-2.2885,-2.2895,-2.292,-2.2969,-2.2975,-2.2941,-2.2941,-2.3015,-2.3022,-2.303,-2.3087,-2.3056,-2.306,-2.3062,-2.3197,-2.3198,-2.3199,0,0,0,0,0,0,-2.2765,-2.2778,-2.2886,-2.2839,-2.2853,-2.2888,-2.2917,-2.2922,-2.2941,-2.2978,-2.2984,-2.2954,-2.3014,-2.3024,-2.3071,-2.309,-2.3062,-2.3066,-2.3195,-2.3197,-2.3199,-2.3201,0,0,0,0,0,0,-2.2761,-2.2776,-2.2795,-2.2839,-2.2855,-2.2927,-2.2918,-2.2924,-2.2948,-2.2948,-2.2991,-2.2997,-2.3014,-2.3065,-2.3075,-2.3095,-2.3069,-2.3194,-2.3196,-2.3198,-2.3199,-2.3203,-2.3205,0,0,0,0,0,-2.2756,-2.2792,-2.2796,-2.2809,-2.288,-2.2928,-2.2937,-2.2958,-2.2949,-2.2968,-2.2992,-2.2996,-2.3086,-2.307,-2.3082,-2.3103,-2.3193,-2.3195,-2.3198,-2.3198,-2.3202,-2.3205,0,0,0,0,0,0,-2.2749,-2.2798,-2.2803,-2.2856,-2.2888,-2.293,-2.2955,-2.2961,-2.2996,-2.2994,-2.3017,-2.3026,-2.3072,-2.3092,-2.3073,-2.3149,-2.3139,-2.3144,-2.3135,-2.3139,-2.3142,-2.3136,-2.3072,0,0,0,0,0,-2.2754,-2.279,-2.2831,-2.2873,-2.2889,-2.2919,-2.2941,-2.2954,-2.2987,-2.3001,-2.3028,-2.306,-2.3095,-2.3118,-2.3153,-2.3202,-2.3211,-2.3223,-2.3225,-2.3228,-2.3232,-2.3258,-2.3264,-2.3208,-2.3208,-2.3208,0,0,-2.2763,-2.2795,-2.2816,-2.2872,-2.2899,-2.2935,-2.293,-2.2969,-2.2995,-2.3006,-2.3052,-2.3073,-2.311,-2.3158,-2.3181,-2.3176,-2.3249,-2.3231,-2.3233,-2.3236,-2.3262,-2.3267,-2.3272,-2.321,-2.321,-2.3209,0,0,-2.28,-2.2828,-2.2866,-2.2892,-2.2932,-2.2952,-2.2961,-2.3003,-2.3017,-2.3064,-2.3073,-2.3104,-2.3165,-2.3191,-2.3212,-2.3257,-2.3262,-2.3268,-2.3283,-2.3309,-2.3313,-2.3317,-2.3332,-2.3338,-2.3272,-2.3272,-2.3272,0,-2.2807,-2.2862,-2.2884,-2.2922,-2.2946,-2.2958,-2.2996,-2.302,-2.3069,-2.3085,-2.3079,-2.3156,-2.3182,-2.3236,-2.3246,-2.3263,-2.3273,-2.3263,-2.3311,-2.3315,-2.3319,-2.3334,-2.334,-2.3272,-2.3272,-2.3272,-2.3272,0,-2.2868,-2.2906,-2.2932,-2.298,-2.3006,-2.3044,-2.307,-2.3094,-2.3104,-2.3124,-2.3171,-2.3202,-2.3243,-2.3257,-2.3267,-2.3312,-2.3308,-2.3307,-2.3296,-2.3325,-2.3339,-2.3345,-2.3273,-2.3272,-2.3272,-2.3272,0,0,-2.2903,-2.2962,-2.2971,-2.2992,-2.3037,-2.3067,-2.3104,-2.3145,-2.3165,-2.3198,-2.3229,-2.3281,-2.3279,-2.3303,-2.3316,-2.3339,-2.3371,-2.3334,-2.3335,-2.3339,-2.3422,-2.3422,-2.3429,-2.3375,-2.3376,-2.3377,-2.3418,0,-2.2944,-2.3013,-2.3033,-2.309,-2.3125,-2.3136,-2.3169,-2.3199,-2.3219,-2.325,-2.3271,-2.3307,-2.3302,-2.3317,-2.334,-2.3362,-2.3388,-2.336,-2.3403,-2.3404,-2.3393,-2.3436,-2.3437,-2.3475,-2.3424,-2.3425,-2.3426,0,-2.3001,-2.3036,-2.3097,-2.3137,-2.3152,-2.3181,-2.322,-2.325,-2.3284,-2.3296,-2.3323,-2.3334,-2.3372,-2.336,-2.3412,-2.3392,-2.3411,-2.3425,-2.3427,-2.3431,-2.3417,-2.3441,-2.3488,-2.3493,-2.3435,-2.3434,-2.3434,0,-2.302,-2.3082,-2.3126,-2.3144,-2.3192,-2.3212,-2.3232,-2.3265,-2.3288,-2.3322,-2.3337,-2.3374,-2.3394,-2.3422,-2.3442,-2.3431,-2.3492,-2.3482,-2.3502,-2.3502,-2.3515,-2.3514,-2.3564,-2.3527,-2.3527,-2.3527,-2.3527,0,-2.3063,-2.31,-2.3135,-2.3162,-2.3203,-2.3225,-2.3264,-2.3285,-2.3314,-2.3345,-2.3357,-2.3385,-2.341,-2.3441,-2.3457,-2.3498,-2.3507,-2.3517,-2.3521,-2.3516,-2.3514,-2.3528,-2.3526,-2.3529,-2.3528,-2.3528,-2.3528,0,-2.3091,-2.3116,-2.3165,-2.3206,-2.3217,-2.3245,-2.3279,-2.3306,-2.3325,-2.3363,-2.3374,-2.3404,-2.3441,-2.3464,-2.3511,-2.3521,-2.3566,-2.3569,-2.3555,-2.3556,-2.3576,-2.3573,-2.3637,-2.3646,-2.3603,-2.3604,-2.3604,0,-2.3117,-2.3145,-2.3189,-2.3211,-2.3232,-2.3267,-2.329,-2.3313,-2.3337,-2.3377,-2.3398,-2.3436,-2.3468,-2.3527,-2.3552,-2.3588,-2.3591,-2.3611,-2.3597,-2.3591,-2.3591,-2.3589,-2.3591,-2.3613,-2.3614,-2.3614,-2.3614,0,-2.316,-2.3171,-2.3205,-2.3243,-2.3271,-2.3302,-2.3333,-2.335,-2.3377,-2.3403,-2.3442,-2.3466,-2.3514,-2.3552,-2.3589,-2.3609,-2.3616,-2.3619,-2.3625,-2.362,-2.3611,-2.3616,-2.3561,-2.3617,-2.3617,-2.3617,-2.3616,-2.3616,-2.3188,-2.3213,-2.3248,-2.3285,-2.3311,-2.3339,-2.3365,-2.3388,-2.3421,-2.3462,-2.3473,-2.3513,-2.3546,-2.3597,-2.3618,-2.3649,-2.3646,-2.3656,-2.3658,-2.366,-2.366,-2.3606,-2.3656,-2.3656,-2.3656,-2.3656,-2.3656,0,-2.3231,-2.3254,-2.3288,-2.3331,-2.336,-2.3364,-2.3398,-2.3422,-2.3457,-2.3487,-2.3518,-2.3562,-2.3598,-2.3626,-2.3663,-2.3682,-2.3686,-2.3691,-2.369,-2.3694,-2.3661,-2.3652,-2.3687,-2.3687,-2.3687,-2.3687,-2.3687,-2.3687,-2.3257,-2.3301,-2.3315,-2.337,-2.3393,-2.3433,-2.3452,-2.3477,-2.3501,-2.355,-2.358,-2.3599,-2.3628,-2.3667,-2.3699,-2.3707,-2.3719,-2.3724,-2.3731,-2.37,-2.3696,-2.3693,-2.3684,-2.3726,-2.3726,-2.3762,-2.3762,-2.3762]}]]